When you browse on this site, cookies collect data to enhance your experience and personalize the content and advertising you see.
Visit our Privacy Policy to learn more. By continuing to use the site, you agree to this use of cookies and data.
  • In Norway
  • List of Countries
  • For 7 days
  • Water Temperature
  • Satellite Maps
  • Weather Map
  • Weather Widgets
  • user-avatar
    Login

    Hourly Weather Kaprun

    Today, 13 December, Thursday

    Time Temperature Precipitation Wind Pressure Humidity
    00:00 -14°C° 0 mm 1 mps 590 mmHg 87%
    01:00 -14°C° 0 mm 1 mps 590 mmHg 85%
    02:00 -14°C° 0 mm 1 mps 590 mmHg 86%
    03:00 -16°C° 0 mm 2 mps 589 mmHg 87%
    04:00 -16°C° 0 mm 2 mps 589 mmHg 88%
    05:00 -17°C° 0 mm 2 mps 589 mmHg 88%
    06:00 -17°C° 0 mm 2 mps 589 mmHg 88%
    07:00 -17°C° 0 mm 2 mps 588 mmHg 88%
    08:00 -16°C° 0 mm 2 mps 589 mmHg 85%
    09:00 -15°C° 0 mm 2 mps 589 mmHg 83%
    10:00 -14°C° 0 mm 2 mps 590 mmHg 80%
    11:00 -13°C° 0 mm 2 mps 590 mmHg 79%
    12:00 -10°C° 0 mm 2 mps 590 mmHg 77%
    13:00 -10°C° 0 mm 2 mps 590 mmHg 75%
    14:00 -12°C° 0 mm 2 mps 590 mmHg 79%
    15:00 -13°C° 0 mm 2 mps 589 mmHg 82%
    16:00 -13°C° 0 mm 2 mps 589 mmHg 86%
    17:00 -14°C° 0 mm 2 mps 589 mmHg 87%
    18:00 -15°C° 0 mm 2 mps 588 mmHg 88%
    19:00 -16°C° 0 mm 2 mps 588 mmHg 89%
    20:00 -17°C° 0 mm 2 mps 588 mmHg 88%
    21:00 -15°C° 0 mm 1 mps 588 mmHg 87%
    22:00 -15°C° 0 mm 1 mps 588 mmHg 87%
    23:00 -15°C° 0 mm 1 mps 588 mmHg 86%

    Tomorrow, 14 December, Friday

    Time Temperature Precipitation Wind Pressure Humidity
    00:00 -15°C° 0 mm 1 mps 588 mmHg 85%
    01:00 -16°C° 0 mm 1 mps 588 mmHg 85%
    02:00 -16°C° 0 mm 1 mps 588 mmHg 83%
    03:00 -16°C° 0 mm 1 mps 588 mmHg 82%
    04:00 -16°C° 0 mm 1 mps 588 mmHg 81%
    05:00 -16°C° 0 mm 1 mps 588 mmHg 79%
    06:00 -16°C° 0 mm 1 mps 588 mmHg 78%
    07:00 -16°C° 0 mm 1 mps 588 mmHg 76%
    08:00 -15°C° 0 mm 1 mps 589 mmHg 75%
    09:00 -13°C° 0 mm 1 mps 590 mmHg 73%
    10:00 -11°C° 0 mm 1 mps 591 mmHg 72%
    11:00 -10°C° 0 mm 1 mps 591 mmHg 69%
    12:00 -9°C° 0 mm 1 mps 591 mmHg 66%
    13:00 -8°C° 0 mm 1 mps 592 mmHg 63%
    14:00 -9°C° 0 mm 1 mps 591 mmHg 69%
    15:00 -11°C° 0 mm 1 mps 590 mmHg 75%
    16:00 -12°C° 0 mm 1 mps 590 mmHg 82%
    17:00 -13°C° 0 mm 1 mps 590 mmHg 83%
    18:00 -14°C° 0 mm 1 mps 590 mmHg 83%
    19:00 -15°C° 0 mm 1 mps 590 mmHg 84%
    20:00 -15°C° 0 mm 1 mps 590 mmHg 82%
    21:00 -15°C° 0 mm 1 mps 590 mmHg 79%
    22:00 -17°C° 0 mm 2 mps 591 mmHg 77%
    23:00 -17°C° 0 mm 2 mps 591 mmHg 75%

    Day after tomorrow, 15 December, Saturday

    Time Temperature Precipitation Wind Pressure Humidity
    00:00 -17°C° 0 mm 2 mps 591 mmHg 73%
    01:00 -17°C° 0 mm 2 mps 591 mmHg 71%
    02:00 -17°C° 0 mm 2 mps 591 mmHg 72%
    03:00 -18°C° 0 mm 2 mps 591 mmHg 74%
    04:00 -18°C° 0 mm 2 mps 591 mmHg 75%
    05:00 -18°C° 0 mm 2 mps 591 mmHg 77%
    06:00 -18°C° 0 mm 2 mps 591 mmHg 79%
    07:00 -18°C° 0 mm 2 mps 592 mmHg 81%
    08:00 -16°C° 0 mm 2 mps 592 mmHg 80%
    09:00 -15°C° 0 mm 2 mps 593 mmHg 79%
    10:00 -14°C° 0 mm 2 mps 594 mmHg 78%
    11:00 -13°C° 0 mm 2 mps 594 mmHg 77%
    12:00 -12°C° 0 mm 2 mps 594 mmHg 76%
    13:00 -10°C° 0 mm 2 mps 594 mmHg 75%
    14:00 -12°C° 0 mm 2 mps 593 mmHg 79%
    15:00 -11°C° 0 mm 1 mps 593 mmHg 82%
    16:00 -12°C° 0 mm 1 mps 592 mmHg 86%
    17:00 -13°C° 0 mm 1 mps 592 mmHg 85%
    18:00 -14°C° 0 mm 1 mps 592 mmHg 83%
    19:00 -17°C° 0 mm 2 mps 592 mmHg 81%
    20:00 -17°C° 0 mm 2 mps 592 mmHg 77%
    21:00 -17°C° 0 mm 2 mps 592 mmHg 74%
    22:00 -17°C° 0 mm 2 mps 591 mmHg 70%
    23:00 -17°C° 0 mm 2 mps 591 mmHg 67%

    16 December, Sunday

    Time Temperature Precipitation Wind Pressure Humidity
    00:00 -17°C° 0 mm 2 mps 591 mmHg 64%
    01:00 -14°C° 0 mm 1 mps 591 mmHg 61%
    02:00 -14°C° 0 mm 1 mps 591 mmHg 58%
    03:00 -14°C° 0 mm 1 mps 590 mmHg 56%
    04:00 -14°C° 0 mm 1 mps 590 mmHg 54%
    05:00 -14°C° 0 mm 1 mps 590 mmHg 53%
    06:00 -13°C° 0 mm 1 mps 590 mmHg 52%
    07:00 -13°C° 0 mm 1 mps 590 mmHg 51%
    08:00 -11°C° 0 mm 1 mps 591 mmHg 53%
    09:00 -9°C° 0 mm 1 mps 592 mmHg 55%
    10:00 -8°C° 0 mm 1 mps 593 mmHg 57%
    11:00 -6°C° 0 mm 1 mps 593 mmHg 58%
    12:00 -4°C° 0 mm 1 mps 593 mmHg 60%
    13:00 -3°C° 0 mm 1 mps 593 mmHg 61%
    14:00 -4°C° 0 mm 1 mps 592 mmHg 64%
    15:00 -6°C° 0 mm 1 mps 592 mmHg 68%
    16:00 -6°C° 0 mm 1 mps 592 mmHg 72%
    17:00 -6°C° 0.2 mm 1 mps 592 mmHg 75%
    18:00 -7°C° 0.2 mm 0 mps 592 mmHg 78%
    19:00 -7°C° 0.2 mm 0 mps 592 mmHg 82%
    20:00 -7°C° 1 mm 0 mps 592 mmHg 87%
    21:00 -7°C° 1 mm 0 mps 593 mmHg 92%
    22:00 -7°C° 1 mm 1 mps 593 mmHg 96%
    23:00 -7°C° 0.7 mm 1 mps 593 mmHg 96%

    17 December, Monday

    Time Temperature Precipitation Wind Pressure Humidity
    00:00 -7°C° 0.7 mm 1 mps 594 mmHg 96%
    01:00 -7°C° 0.7 mm 1 mps 594 mmHg 96%
    02:00 -7°C° 0.1 mm 1 mps 594 mmHg 96%
    03:00 -8°C° 0.1 mm 2 mps 593 mmHg 95%
    04:00 -8°C° 0.1 mm 2 mps 593 mmHg 94%
    05:00 -9°C° 0 mm 2 mps 593 mmHg 93%
    06:00 -9°C° 0 mm 1 mps 593 mmHg 92%
    07:00 -9°C° 0 mm 1 mps 593 mmHg 92%
    08:00 -9°C° 0 mm 1 mps 594 mmHg 89%
    09:00 -8°C° 0 mm 1 mps 594 mmHg 87%
    10:00 -7°C° 0 mm 1 mps 595 mmHg 84%
    11:00 -6°C° 0 mm 1 mps 595 mmHg 82%
    12:00 -4°C° 0 mm 1 mps 596 mmHg 80%
    13:00 -3°C° 0 mm 1 mps 596 mmHg 77%
    14:00 -4°C° 0 mm 1 mps 596 mmHg 81%
    15:00 -7°C° 0 mm 1 mps 595 mmHg 84%
    16:00 -8°C° 0 mm 1 mps 595 mmHg 87%
    17:00 -9°C° 0 mm 1 mps 595 mmHg 85%
    18:00 -10°C° 0 mm 2 mps 595 mmHg 84%
    19:00 -12°C° 0 mm 2 mps 596 mmHg 82%
    20:00 -12°C° 0 mm 2 mps 596 mmHg 82%
    21:00 -12°C° 0 mm 2 mps 596 mmHg 83%
    22:00 -12°C° 0 mm 2 mps 597 mmHg 83%
    23:00 -12°C° 0 mm 2 mps 597 mmHg 83%

    18 December, Tuesday

    Time Temperature Precipitation Wind Pressure Humidity
    00:00 -12°C° 0 mm 2 mps 597 mmHg 83%
    01:00 -10°C° 0 mm 2 mps 598 mmHg 84%
    02:00 -12°C° 0 mm 2 mps 598 mmHg 84%
    03:00 -12°C° 0 mm 2 mps 598 mmHg 85%
    04:00 -13°C° 0 mm 2 mps 597 mmHg 86%
    05:00 -11°C° 0 mm 1 mps 597 mmHg 86%
    06:00 -11°C° 0 mm 1 mps 597 mmHg 85%
    07:00 -11°C° 0 mm 1 mps 597 mmHg 85%
    08:00 -10°C° 0 mm 1 mps 598 mmHg 83%
    09:00 -9°C° 0 mm 1 mps 599 mmHg 80%
    10:00 -7°C° 0 mm 1 mps 599 mmHg 78%
    11:00 -6°C° 0 mm 1 mps 599 mmHg 76%
    12:00 -4°C° 0 mm 1 mps 599 mmHg 75%
    13:00 -2°C° 0 mm 1 mps 599 mmHg 73%
    14:00 -4°C° 0 mm 1 mps 598 mmHg 76%
    15:00 -6°C° 0 mm 1 mps 598 mmHg 78%
    16:00 -7°C° 0 mm 1 mps 597 mmHg 81%
    17:00 -9°C° 0 mm 2 mps 597 mmHg 77%
    18:00 -9°C° 0 mm 2 mps 596 mmHg 74%
    19:00 -10°C° 0 mm 2 mps 596 mmHg 70%
    20:00 -10°C° 0 mm 2 mps 596 mmHg 68%
    21:00 -10°C° 0 mm 2 mps 595 mmHg 65%
    22:00 -10°C° 0 mm 2 mps 595 mmHg 62%
    23:00 -9°C° 0 mm 2 mps 595 mmHg 62%
    Show more